Theta_e
288 288 288 290 289 290 290 289 289 287 288 288 285 286 287 282 277 282 288 289 286 286 288 290 290 291 291 291 291 292 292 292 292 292 291 291 291 292 292 292 292 292 292 292 293 293 294 294 293 294 295 296 296 296 297 297 298 298 300 300 301 301 302 302 302 304 305 306 309 311 316 321 323 322 322 322 323 323 323 322 321 321 321 321 319 317 316
287 287 287 289 288 288 289 288 289 289 289 288 288 287 289 289 287 290 289 287 285 287 289 290 291 292 292 291 292 292 291 291 291 291 290 290 290 290 290 291 291 292 292 292 292 292 292 292 293 294 294 295 295 295 296 297 297 298 299 299 300 300 301 301 302 303 304 305 306 309 314 319 322 323 322 322 322 323 323 322 322 321 320 318 317 315 312
286 287 288 288 287 288 286 288 288 289 289 288 289 289 288 289 288 287 286 285 284 289 291 291 292 292 292 291 290 290 290 290 290 290 289 289 289 290 290 291 291 291 292 292 291 291 291 292 292 293 293 294 295 295 296 296 296 298 298 298 299 300 300 301 302 303 303 304 305 307 310 315 321 322 322 322 322 322 322 321 320 319 318 314 314 313 312
284 287 285 285 287 287 285 285 286 286 286 284 285 285 288 287 284 286 286 283 283 288 291 291 291 291 290 289 289 288 289 289 289 288 288 289 289 289 290 290 291 291 291 291 291 291 291 292 293 293 293 294 294 294 295 296 296 297 297 298 298 299 300 300 301 301 302 303 304 305 307 309 316 321 321 321 321 321 320 318 317 317 316 314 312 311 310
282 285 283 282 282 282 282 283 286 287 287 288 288 288 289 288 289 286 284 283 287 289 290 288 288 288 288 287 288 288 288 289 289 288 288 289 289 289 290 290 291 291 291 291 291 291 292 292 292 293 293 293 293 294 294 295 296 296 296 297 297 298 299 300 300 301 302 302 303 304 305 308 311 318 320 320 320 319 318 316 314 314 314 312 309 308 308
284 286 284 284 279 274 278 287 290 290 286 287 284 284 286 288 289 286 288 287 289 290 289 287 286 286 286 287 289 290 289 288 289 289 290 289 290 290 291 291 291 291 292 292 292 292 292 292 293 293 294 293 293 294 295 295 295 295 295 296 296 296 298 299 300 300 301 302 302 303 304 305 307 310 316 319 318 317 314 311 311 310 309 308 306 306 306
283 283 283 280 274 275 286 291 291 291 290 289 287 287 288 288 289 289 288 288 288 288 288 287 287 288 289 290 290 290 291 290 289 289 289 290 290 290 290 291 291 291 292 292 292 292 292 292 293 292 293 293 293 293 294 294 294 294 294 295 295 295 296 298 299 299 300 301 301 302 303 303 303 304 303 304 307 307 307 307 306 305 305 304 303 303 303
284 282 280 276 271 284 288 289 290 292 291 289 288 286 288 289 289 289 287 287 287 287 287 288 289 289 289 290 291 290 290 291 290 289 289 290 291 290 291 291 291 291 292 292 292 292 293 292 292 292 292 292 292 293 294 294 294 294 294 294 294 294 295 296 297 299 299 300 301 301 301 301 301 300 300 300 300 301 301 300 300 300 300 301 301 300 300
282 281 279 278 284 284 285 285 287 287 284 285 284 281 284 289 290 289 287 287 287 287 288 289 289 289 288 286 287 291 292 292 293 292 292 292 292 292 292 293 292 293 293 293 293 293 291 291 292 291 292 292 292 293 293 293 293 293 293 293 293 294 294 295 296 298 299 299 300 300 300 300 299 299 298 298 298 299 298 298 297 297 297 297 298 298 299
281 280 278 279 278 276 281 287 290 292 291 290 288 286 283 289 290 290 288 286 287 287 288 288 289 289 286 282 283 289 292 293 293 293 293 294 293 293 293 294 294 294 294 293 294 292 291 292 292 292 292 292 292 292 293 293 293 293 293 293 293 293 293 294 296 297 298 299 299 299 299 299 298 298 299 298 298 298 297 297 296 297 297 297 298 297 297
279 277 277 277 275 277 283 286 290 291 291 290 288 284 281 287 290 291 289 287 287 287 287 287 288 287 283 281 284 289 291 292 293 292 293 293 293 293 293 293 293 293 293 293 293 293 292 292 292 292 292 292 293 292 293 293 293 293 293 293 293 293 293 294 295 296 297 298 298 299 298 298 299 298 298 298 298 299 298 298 297 297 298 297 297 297 297
272 275 274 275 279 279 286 288 289 290 291 291 287 276 278 286 290 291 290 288 288 288 288 288 288 286 282 282 285 291 292 292 293 293 292 292 293 293 294 294 294 294 294 293 292 291 291 292 292 293 293 292 293 293 293 293 293 293 293 293 294 294 294 294 295 296 297 297 298 298 299 299 299 299 299 299 298 298 298 298 297 297 297 296 295 295 296
275 277 277 279 280 286 288 289 291 292 292 289 278 275 281 288 289 291 291 289 289 289 289 289 285 286 288 288 290 291 292 292 292 293 293 293 293 293 293 294 295 294 293 292 291 291 292 292 293 293 293 292 292 293 293 292 292 293 293 294 295 295 295 295 295 295 296 297 297 298 299 300 300 300 299 299 298 298 297 297 297 296 296 296 295 295 295
274 276 277 277 280 286 290 292 293 293 289 279 276 283 290 289 288 290 291 290 290 290 290 288 288 289 290 291 291 291 292 291 291 292 293 293 293 294 295 295 295 294 294 293 293 293 294 294 294 293 293 293 292 292 292 292 293 294 294 294 295 295 295 295 295 295 295 296 297 297 298 300 300 299 300 300 299 298 298 297 296 296 295 295 295 295 295
274 270 275 274 273 283 291 292 291 290 284 282 287 288 289 290 289 289 289 290 289 290 288 289 289 289 290 290 291 291 291 291 291 292 292 292 292 292 293 293 294 294 293 293 293 293 294 294 294 293 292 292 292 293 292 293 294 294 294 294 295 296 296 295 295 295 295 295 296 297 297 298 299 299 299 299 299 298 297 296 296 295 295 295 295 294 294
275 269 269 273 281 286 291 289 284 286 287 289 289 289 287 290 290 289 289 289 290 290 289 288 288 289 289 290 291 291 291 291 291 291 290 290 290 291 291 291 292 292 291 292 292 292 293 293 293 292 292 292 292 292 292 295 295 295 295 295 295 295 296 295 295 295 295 295 295 295 296 296 297 298 298 299 298 298 297 296 295 294 294 294 294 293 293
275 274 278 285 289 289 290 289 287 288 289 290 290 290 289 289 289 291 289 289 290 290 290 289 289 289 290 290 290 290 290 290 290 291 291 291 292 292 292 293 294 294 293 292 293 293 294 294 294 293 292 291 292 291 293 295 295 295 295 295 295 294 295 295 294 294 294 294 294 294 295 296 295 295 296 297 297 297 297 296 295 294 293 293 293 292 292
288 289 289 290 289 289 289 290 290 290 290 290 290 289 288 289 289 289 289 290 290 291 291 289 289 290 290 290 290 290 289 289 288 289 288 289 290 291 292 293 293 293 293 293 293 293 293 294 294 293 292 291 291 291 294 295 295 295 294 294 294 294 294 295 295 294 293 293 293 293 293 294 295 295 294 295 295 295 296 296 295 294 293 293 292 292 292
283 278 288 287 287 289 289 289 290 291 291 289 289 288 288 288 288 289 289 290 290 290 289 288 287 287 287 286 285 286 285 285 285 285 285 286 286 287 289 290 290 291 291 291 291 292 292 293 293 293 292 292 292 292 293 293 294 294 293 293 293 293 293 294 295 294 293 292 292 292 292 292 293 293 294 293 293 293 293 295 295 294 294 293 293 292 292
283 282 287 288 289 290 290 289 288 288 288 289 289 289 289 289 289 289 288 289 288 288 287 287 286 285 285 285 284 284 283 283 283 283 284 285 286 288 287 288 289 289 289 289 289 290 290 291 291 292 292 292 293 293 293 293 293 293 292 292 292 292 293 293 294 294 293 289 291 291 291 290 290 291 292 292 291 290 290 291 294 293 293 293 292 292 292
285 288 288 288 289 288 289 290 289 288 288 288 288 289 289 289 288 288 287 287 288 287 286 285 286 285 284 284 283 283 282 283 283 284 284 285 285 285 287 288 288 287 288 289 289 289 290 290 290 291 292 292 293 293 292 293 293 292 291 290 291 291 292 293 293 293 293 292 292 292 291 291 290 289 289 290 291 291 291 291 292 294 293 293 293 293 293
281 282 284 287 282 281 285 287 288 289 289 289 288 288 288 288 287 287 286 285 284 285 284 286 285 285 284 283 282 285 283 283 283 282 283 284 284 285 285 286 286 287 288 287 288 289 289 288 289 290 291 292 292 292 293 293 292 291 290 290 289 290 291 291 291 292 293 292 292 291 291 291 291 291 288 289 289 290 289 289 289 289 290 292 293 293 291
281 286 288 286 288 287 286 287 288 289 288 288 288 287 287 286 286 286 286 286 285 285 283 284 285 283 284 284 281 284 283 283 282 282 282 283 285 285 285 285 286 286 286 287 286 287 288 288 289 289 289 290 290 291 291 292 292 291 290 289 289 289 289 290 290 291 292 292 291 291 291 291 291 291 291 291 289 288 289 289 289 289 288 289 289 289 292
287 289 285 288 288 286 286 287 288 288 288 289 288 287 287 287 286 286 287 286 286 283 283 284 283 284 283 282 282 283 282 280 281 281 280 281 281 282 283 283 284 284 285 285 285 286 286 287 287 287 287 288 288 289 289 290 291 291 290 289 288 288 289 289 290 290 291 291 292 291 290 290 290 290 290 290 291 290 289 289 289 289 288 288 288 288 288
286 287 287 288 288 288 288 289 289 289 290 289 288 287 287 286 285 286 286 284 284 286 285 284 283 281 282 281 281 282 283 282 281 282 284 285 283 283 283 281 282 282 282 282 282 284 285 285 285 285 285 287 287 288 288 288 289 290 290 289 288 289 288 289 289 290 289 290 289 291 291 290 290 290 289 289 289 289 290 289 289 289 288 288 288 288 288
288 288 289 289 288 287 287 288 287 286 287 288 288 287 289 291 288 287 284 284 282 282 283 282 284 283 283 281 281 281 281 281 284 283 282 282 282 282 282 281 281 281 281 282 282 283 283 284 284 284 285 287 287 287 288 288 288 288 288 288 287 287 288 288 288 289 289 288 288 289 289 290 290 289 289 290 289 289 289 289 290 290 289 289 288 288 288
289 290 289 288 287 286 287 287 286 287 287 287 288 287 286 287 291 287 284 283 283 283 284 283 284 284 282 282 283 281 283 282 283 282 281 281 281 282 281 280 280 281 282 282 283 283 283 283 284 284 285 287 286 286 287 287 287 289 289 288 287 286 285 287 287 287 287 287 287 288 289 289 290 290 290 289 289 289 289 288 288 288 287 288 288 288 288
289 288 288 285 284 285 287 285 287 286 285 286 286 286 285 286 286 286 286 286 286 284 284 283 284 284 285 282 283 283 282 282 283 282 281 282 281 280 280 280 280 280 281 281 281 281 282 282 283 283 284 286 286 286 287 287 287 288 289 290 289 287 287 286 285 285 286 287 287 287 287 287 288 290 289 290 289 289 289 288 288 288 287 288 288 288 288
288 287 286 286 286 286 286 286 287 287 285 285 286 285 286 287 285 285 286 284 284 284 285 284 284 284 284 283 281 282 282 281 282 282 282 282 281 280 279 279 279 280 280 281 282 281 282 282 282 283 284 284 285 285 286 287 288 289 290 290 289 288 286 285 284 284 284 285 285 286 285 286 287 288 289 289 289 290 289 288 287 287 288 288 289 289 289
286 285 287 286 287 287 288 287 286 285 285 285 286 286 285 286 285 285 285 284 284 285 285 284 283 283 282 282 281 281 282 282 282 280 281 281 279 278 279 279 279 280 281 282 282 281 281 281 281 282 283 283 284 285 285 285 287 290 289 289 288 287 285 284 284 285 285 285 284 283 285 286 287 287 288 288 289 288 287 287 286 286 287 287 288 288 288
283 284 285 285 286 286 286 285 285 285 284 284 285 285 284 285 285 285 283 283 282 283 283 283 283 282 281 283 283 282 282 282 281 280 281 280 280 278 277 280 282 282 282 282 282 281 281 281 281 282 283 282 283 284 285 286 286 287 287 288 289 288 284 283 283 285 284 284 284 284 285 285 285 285 285 286 286 286 287 286 286 286 286 286 287 287 287
284 284 285 285 285 284 283 282 284 284 284 283 284 285 285 285 286 286 284 283 284 284 283 282 282 283 284 282 281 281 281 281 282 282 280 279 276 273 273 277 281 282 281 281 280 280 281 281 282 284 283 282 283 284 284 285 285 286 288 287 288 289 287 285 285 285 284 284 284 284 283 284 284 284 285 285 285 286 285 285 285 285 285 286 286 286 286
283 282 281 281 282 282 282 282 285 284 283 284 286 286 285 286 286 285 284 284 283 282 282 283 283 282 281 281 281 281 280 279 279 279 278 275 272 272 274 277 278 279 279 280 281 281 281 281 284 284 283 283 283 284 284 285 286 287 287 286 286 287 287 287 285 285 285 284 284 284 283 283 283 284 284 283 284 284 285 285 285 285 285 285 285 286 286
285 285 285 284 285 284 284 283 283 283 282 283 283 283 283 284 283 283 282 282 282 282 282 283 282 281 281 281 280 277 277 279 280 279 276 274 273 273 274 276 278 279 280 281 280 280 280 281 282 282 283 283 283 283 284 284 285 286 287 286 286 287 288 287 285 284 284 284 284 284 283 283 284 283 282 282 283 284 284 284 283 284 285 286 286 286 287
288 286 286 286 286 287 287 286 284 284 284 284 283 282 283 283 283 284 283 284 284 285 283 282 281 280 278 277 277 276 276 280 279 276 275 272 273 272 273 278 280 281 281 282 282 282 281 282 282 282 283 283 283 283 283 284 285 286 286 286 287 286 286 285 285 284 285 285 285 285 285 284 283 282 281 282 283 283 284 284 285 285 286 286 286 286 286
286 285 284 284 284 285 286 286 285 285 285 285 284 284 284 284 282 283 283 283 282 282 282 281 281 280 277 277 276 275 276 277 274 272 271 272 271 271 276 280 280 281 281 283 284 282 281 282 282 281 283 283 284 284 283 284 285 284 284 285 286 286 285 284 283 284 284 285 285 284 284 283 282 281 282 283 283 283 284 285 285 286 286 286 286 286 286
286 287 286 286 285 285 284 285 285 285 285 285 285 284 283 282 284 283 282 282 282 282 282 281 281 281 280 280 278 277 275 275 275 274 273 270 270 274 279 279 280 281 280 281 283 282 281 282 281 281 282 282 283 284 283 283 284 284 284 285 286 287 286 285 284 284 285 283 283 283 282 283 284 283 282 283 283 283 284 285 285 286 286 286 286 286 286
284 287 287 286 285 285 285 285 285 286 285 284 283 283 285 285 282 283 283 283 282 282 281 282 282 281 280 278 276 275 276 273 273 272 270 270 273 279 280 280 281 281 280 283 282 281 283 283 281 281 282 283 283 284 283 281 283 283 284 285 286 286 286 285 285 284 284 284 283 284 285 285 285 285 284 283 284 284 284 284 285 286 287 286 286 286 286
283 283 284 284 284 284 283 283 284 285 287 287 285 283 283 282 281 282 283 283 281 282 282 281 280 281 281 281 281 280 278 276 274 272 272 273 276 279 281 282 282 283 284 283 282 284 284 283 282 282 283 283 283 283 282 282 283 283 283 283 284 284 285 284 285 284 285 284 284 285 285 285 285 285 284 284 284 283 284 285 285 286 286 286 286 286 286
284 284 284 284 284 284 284 284 284 285 285 287 286 286 284 283 282 283 283 284 282 282 283 282 283 283 281 281 282 283 283 282 279 276 277 278 279 279 281 283 284 284 284 283 284 283 283 282 282 283 283 283 282 282 282 283 283 282 283 283 285 284 284 284 285 285 285 285 285 284 285 285 285 285 284 283 284 284 284 285 285 285 286 286 286 287 286
284 284 283 285 284 284 285 284 284 284 284 285 285 285 284 285 283 283 283 284 282 282 283 284 284 283 283 284 284 284 283 282 281 281 279 280 281 281 280 282 284 283 283 282 282 282 282 282 282 283 284 283 283 281 282 283 283 283 284 282 283 284 284 285 285 285 285 285 285 285 286 286 286 285 284 284 284 284 284 285 285 285 286 286 286 287 287
283 283 283 284 284 284 284 284 284 284 284 284 284 284 284 283 285 286 284 283 282 282 283 283 283 284 284 283 282 282 282 282 281 280 280 282 283 280 280 282 283 283 283 283 282 282 282 282 281 281 282 282 282 281 282 284 282 283 283 284 284 283 284 284 284 285 285 285 285 285 285 285 285 285 284 284 285 285 284 284 284 285 286 286 287 287 287
283 284 284 284 283 283 284 284 286 285 284 283 283 284 283 283 283 283 283 282 283 283 283 282 282 283 282 282 282 283 283 282 283 281 281 281 282 282 284 285 284 283 283 283 283 283 282 282 282 282 281 282 281 281 283 283 283 284 284 284 283 283 283 283 283 284 285 285 286 285 285 284 284 285 285 285 285 285 285 284 285 285 285 286 287 286 286
283 284 284 284 284 284 284 284 283 284 285 285 283 283 283 283 283 285 284 284 283 283 284 284 283 283 282 281 282 283 284 283 283 281 283 283 284 282 283 284 284 283 283 283 283 283 283 282 281 282 281 282 282 282 284 283 283 284 284 283 282 281 282 282 282 283 284 284 285 286 285 284 284 284 285 285 285 285 285 285 285 285 285 286 287 286 285
284 284 285 285 284 284 284 284 285 286 286 284 283 283 283 283 283 283 284 283 284 283 282 283 283 283 283 282 283 284 284 283 284 282 285 285 284 284 283 283 283 283 284 283 283 282 282 282 282 282 281 282 282 283 284 283 284 283 283 282 281 281 281 282 282 282 282 283 284 284 285 284 284 284 284 285 285 286 286 285 285 285 285 286 286 286 287
284 284 284 283 284 285 286 286 284 284 284 285 284 284 284 283 283 282 282 283 283 283 282 281 282 282 282 282 282 282 283 283 282 283 284 286 287 286 283 283 284 284 284 283 282 282 282 282 282 282 282 282 283 284 283 282 281 282 282 281 281 281 281 282 282 282 282 282 283 283 284 284 284 284 285 286 286 286 286 285 285 285 285 286 287 287 287
284 283 285 286 286 284 283 282 282 284 284 284 285 285 285 283 283 282 282 282 283 283 283 282 283 284 284 282 283 287 287 286 284 284 282 282 282 282 282 282 282 282 283 283 283 283 282 283 283 282 282 283 283 283 282 282 282 282 281 281 281 281 281 281 282 282 282 283 283 283 283 283 284 285 285 285 285 286 285 283 285 286 285 285 286 286 286
284 284 284 283 284 282 282 283 284 285 285 287 285 286 283 282 282 282 282 283 283 283 283 282 282 283 282 283 283 284 284 285 286 284 281 282 282 281 281 282 282 281 282 282 283 283 282 282 282 282 282 282 282 282 282 282 282 281 281 281 281 282 282 282 282 282 283 283 283 283 283 283 284 284 284 285 285 285 285 285 286 286 285 285 286 286 286
285 285 283 282 283 283 284 284 283 283 284 283 283 283 282 282 282 283 283 283 283 283 282 282 282 282 281 282 282 282 282 282 285 287 285 281 281 281 281 281 281 281 281 282 282 282 281 281 281 281 281 282 282 282 281 281 281 281 280 281 281 281 282 282 282 283 283 283 283 283 283 283 283 283 283 284 285 285 285 286 286 285 286 286 285 285 286
283 283 283 282 283 283 283 283 282 283 283 283 284 283 283 284 284 283 282 282 283 282 282 281 282 282 281 281 281 281 281 282 281 282 282 282 282 281 282 282 282 282 282 282 282 282 281 281 280 280 280 281 281 281 281 281 281 280 280 281 280 280 280 280 281 282 283 283 284 284 284 284 284 282 283 284 284 285 286 286 286 285 284 285 285 285 286
282 284 284 284 285 285 285 286 286 285 284 284 284 283 283 284 285 283 282 282 282 283 283 283 283 282 282 283 282 282 281 282 282 282 281 282 282 282 282 281 282 282 282 282 281 282 280 281 280 280 281 281 280 280 280 280 280 280 280 280 281 280 280 281 280 282 282 282 283 283 284 283 283 283 282 283 284 285 285 286 285 285 284 284 285 285 286
285 285 285 284 283 283 283 283 283 285 284 283 283 283 283 283 284 282 281 282 283 284 283 284 284 284 281 281 283 283 282 282 282 281 281 281 281 281 281 282 281 281 281 282 281 282 282 281 280 281 280 280 280 280 280 281 280 279 280 279 280 280 280 280 280 280 280 281 281 281 281 281 281 281 281 282 283 284 285 285 285 285 285 285 285 284 284
Wind_Speed
9 5 5 9 12 12 10 11 11 12 9 9 7 2 2 0 4 8 10 12 9 7 7 7 6 6 7 8 7 7 8 7 7 7 8 9 9 9 9 9 9 10 10 10 11 11 10 10 11 11 11 11 10 10 9 10 10 11 10 11 12 12 13 12 12 11 11 11 10 11 10 9 9 8 8 9 8 8 8 8 8 10 8 9 8 7 6
10 8 6 5 14 8 12 13 13 11 13 12 10 8 4 5 6 11 15 12 10 5 6 7 7 6 7 7 6 7 8 7 7 8 8 9 9 9 9 9 9 9 9 9 9 9 10 11 11 10 10 10 10 11 11 11 11 11 10 10 12 12 12 13 13 13 12 11 12 11 10 9 9 8 9 8 8 8 9 9 9 7 8 8 9 9 8
7 7 6 8 9 11 14 11 11 11 10 11 10 9 10 14 13 13 14 13 9 4 7 8 7 6 6 7 8 8 7 7 8 8 8 9 9 9 9 9 9 9 10 10 10 10 10 11 10 9 9 9 9 11 11 11 11 11 10 11 10 11 13 12 13 13 12 12 12 11 10 11 9 8 9 8 8 9 9 9 10 9 10 9 9 8 9
3 2 6 8 12 15 15 12 10 9 6 7 5 4 4 1 9 11 13 8 5 6 8 8 8 7 8 8 7 7 7 7 7 8 8 8 8 9 9 9 9 10 10 10 11 11 11 11 10 10 10 10 10 11 11 11 10 10 10 11 12 11 11 12 12 13 13 14 13 12 10 10 11 9 8 8 9 9 8 8 8 7 10 10 9 8 7
2 2 0 2 3 5 7 6 5 7 6 6 6 7 8 6 4 11 8 4 5 8 8 9 8 8 8 7 7 7 7 7 7 7 7 7 7 8 9 10 10 9 10 10 10 11 10 10 11 11 10 10 10 9 10 9 9 10 11 11 11 12 12 12 13 12 12 13 13 12 12 10 10 9 7 7 8 6 9 9 7 9 9 8 8 7 8
5 5 1 2 3 2 1 2 5 2 2 5 9 5 6 6 4 2 4 9 8 8 7 8 8 8 7 7 7 6 5 5 5 6 6 6 5 6 8 8 8 9 9 9 9 9 9 9 9 9 8 8 8 7 7 7 9 10 10 12 12 13 13 13 12 12 12 12 13 12 12 12 9 11 8 7 6 6 4 5 6 4 4 8 7 7 7
6 2 3 4 0 0 3 2 2 6 8 12 15 11 10 10 11 14 13 10 9 7 8 9 10 10 9 9 8 8 7 5 5 6 6 6 7 7 7 8 8 9 9 9 9 10 10 9 9 9 10 9 8 8 8 9 10 10 11 11 13 13 13 14 14 14 13 13 13 12 12 12 11 9 9 11 10 6 2 3 3 3 2 5 5 5 6
4 3 2 4 2 2 4 4 5 5 6 4 11 11 9 7 7 8 11 9 9 10 9 8 8 10 10 8 7 7 6 6 5 5 5 5 5 6 6 7 7 7 9 9 9 9 8 9 9 9 9 8 8 9 9 10 10 10 10 12 12 12 13 13 14 13 12 12 12 11 11 12 11 10 11 10 9 9 8 5 5 6 6 6 5 5 5
5 3 4 5 4 5 4 5 2 2 2 1 2 5 3 4 1 5 10 10 9 9 8 9 8 8 7 8 6 6 6 5 5 5 4 4 5 5 6 5 6 6 7 7 8 7 8 8 9 9 9 8 8 9 11 11 11 11 11 12 12 12 12 13 13 13 13 12 12 11 11 12 12 11 11 11 11 9 8 6 8 9 8 8 8 7 6
3 7 6 3 0 3 6 1 1 0 0 1 2 6 3 3 5 7 9 10 10 9 8 8 8 5 4 5 4 4 4 4 4 4 4 4 5 5 5 6 6 8 7 7 7 6 7 8 8 8 8 8 8 9 10 10 11 11 12 12 12 12 12 12 12 12 12 12 12 12 11 11 11 11 10 10 10 9 8 7 8 9 9 10 10 10 10
5 3 5 3 4 2 1 6 1 0 1 3 2 5 2 1 2 7 8 10 8 10 10 7 4 2 2 2 2 1 1 2 3 4 5 4 4 5 5 5 7 7 6 5 6 8 8 9 9 8 8 8 8 9 9 10 10 12 12 12 11 11 11 11 11 11 11 12 12 12 10 10 11 11 11 10 9 9 8 6 7 9 11 11 11 10 11
1 5 3 3 1 2 2 1 0 1 1 2 0 1 2 4 0 7 8 9 9 7 6 7 4 1 3 4 4 2 2 2 2 3 5 6 6 6 6 6 4 3 4 8 9 9 8 8 7 8 7 7 8 8 9 8 11 12 11 9 9 9 9 10 10 11 11 12 12 12 11 10 9 10 10 11 11 11 11 7 6 11 12 11 13 11 11
5 6 1 2 1 1 1 1 1 2 3 1 2 3 3 4 3 5 7 8 7 7 6 5 2 2 0 6 6 3 2 4 4 4 3 3 3 4 6 7 7 6 5 4 5 5 6 7 7 7 6 7 8 8 8 10 12 10 9 7 8 8 9 10 11 11 10 11 13 12 11 9 8 9 9 11 11 12 11 8 7 13 13 11 12 12 12
4 1 4 2 2 1 1 1 1 2 2 2 4 2 3 8 6 4 7 9 6 6 4 4 4 5 8 8 5 4 4 4 3 3 4 5 6 5 5 7 7 6 6 7 8 8 7 8 8 7 7 8 8 7 8 11 9 8 8 8 7 8 10 10 10 11 11 12 11 10 11 9 9 10 9 9 9 10 9 9 10 12 11 10 11 12 12
2 3 4 1 1 1 3 0 1 2 1 1 4 8 5 5 6 7 5 6 6 8 7 8 9 8 7 6 5 4 4 4 4 3 3 4 4 5 7 8 8 7 7 8 8 7 7 7 7 7 8 9 8 7 10 9 8 8 8 8 8 8 10 11 10 11 11 13 11 10 11 10 10 10 9 10 11 10 10 11 11 11 11 9 11 12 12
4 2 2 2 0 1 2 1 3 0 1 7 8 8 8 5 6 7 7 5 6 9 11 10 8 7 8 5 5 4 3 3 3 3 3 3 4 5 5 4 5 6 7 7 7 7 7 7 7 7 7 8 9 9 10 8 8 8 8 8 8 9 9 9 10 10 10 11 11 10 11 11 11 11 11 10 10 10 10 10 10 11 9 9 11 12 12
2 2 2 1 2 2 3 3 4 6 7 7 5 6 8 9 6 5 7 8 7 8 11 9 8 7 5 5 3 3 2 2 3 3 3 3 4 5 5 5 6 6 6 6 7 8 8 9 8 8 6 8 10 10 9 7 8 7 7 8 8 9 8 8 9 8 9 9 10 10 10 11 11 10 11 10 10 9 9 9 8 9 9 10 11 11 11
8 9 6 5 6 7 8 8 6 9 9 7 7 8 8 4 5 4 8 8 8 8 8 9 7 6 5 5 3 3 3 2 2 3 4 5 5 4 4 5 7 5 5 6 7 8 9 8 9 8 8 6 9 9 9 9 8 7 6 7 8 8 8 7 8 8 9 9 9 9 10 9 10 9 9 9 9 9 9 9 9 9 9 10 10 10 10
2 5 3 7 8 7 8 9 7 7 7 5 5 6 6 6 6 7 6 8 7 7 7 7 7 6 4 5 3 2 2 1 2 3 3 4 3 3 5 5 4 5 4 6 6 7 8 8 8 8 7 8 8 7 8 8 8 7 7 7 7 7 8 7 7 7 8 7 8 9 9 8 8 8 9 8 9 9 8 8 8 8 9 9 10 10 10
3 6 7 8 9 8 7 6 7 7 7 8 6 5 5 6 6 6 6 7 7 5 6 5 6 5 3 6 2 1 0 0 2 2 3 3 5 5 3 3 4 4 4 4 5 5 6 7 7 7 7 7 8 8 8 8 8 7 8 7 7 7 7 6 6 6 6 8 8 7 8 8 8 8 8 7 8 8 7 7 6 6 6 7 6 6 6
9 11 9 9 10 10 8 6 5 4 6 8 8 7 7 7 8 6 5 4 5 5 6 5 6 5 2 3 3 2 0 1 2 2 3 3 3 4 5 5 4 4 3 5 5 5 6 5 6 7 7 7 8 8 8 7 7 7 8 8 7 8 7 6 6 6 5 5 5 5 5 7 7 7 7 6 6 6 6 4 4 4 5 5 5 4 5
6 5 9 12 10 7 5 4 5 6 6 8 8 7 7 7 7 6 7 5 4 5 4 6 5 5 3 1 1 1 1 1 2 2 3 4 4 5 3 4 4 5 5 4 5 6 6 5 5 6 7 7 7 7 7 7 7 7 7 7 8 8 7 7 6 6 5 4 4 4 5 5 5 6 8 10 7 5 4 7 9 9 5 3 2 3 5
8 7 12 2 6 10 6 7 5 6 6 8 9 7 7 5 5 6 7 7 5 4 2 1 5 4 4 3 1 0 1 1 2 2 2 4 5 5 5 6 7 6 6 5 5 6 6 6 6 6 6 7 6 7 7 6 6 6 6 7 7 7 7 6 6 5 4 3 4 3 3 4 4 5 6 8 11 11 8 8 9 10 10 9 9 7 5
7 9 4 6 7 9 8 7 7 6 5 7 7 5 5 6 5 5 6 6 7 4 3 1 1 4 2 2 3 1 1 2 3 3 3 3 3 3 3 2 2 5 6 7 6 6 6 5 6 5 7 7 6 7 7 6 6 5 5 6 6 6 5 5 5 6 4 4 2 3 3 3 4 4 4 6 7 9 10 10 10 11 10 10 9 7 6
10 4 5 6 8 10 7 9 7 6 5 7 8 6 6 5 4 4 6 4 4 6 5 3 1 1 3 2 2 1 1 2 2 3 4 3 3 1 2 3 5 4 4 3 3 3 4 5 5 5 5 6 6 7 7 6 5 5 5 5 6 6 6 6 5 5 5 5 5 3 2 2 3 3 4 3 5 5 6 6 8 10 11 10 8 7 6
10 10 10 9 9 7 6 8 6 5 5 5 4 4 4 5 4 4 4 4 4 2 4 3 2 0 1 1 2 2 1 2 3 2 2 2 3 4 5 4 3 2 2 3 3 4 5 5 4 4 5 6 6 7 7 5 4 4 4 3 3 3 4 5 6 5 5 5 5 4 3 2 3 4 3 3 3 3 4 3 4 4 8 11 10 7 7
9 10 15 14 10 7 5 7 7 5 5 4 5 5 4 4 5 4 3 3 3 3 2 2 2 1 2 1 1 1 1 3 1 1 0 1 2 1 2 2 2 2 2 3 4 4 4 4 4 5 5 5 5 5 6 5 4 4 4 4 4 4 5 5 4 5 5 4 5 4 4 3 2 3 4 3 3 2 2 3 3 4 3 5 8 9 5
9 5 3 12 12 9 7 3 6 5 4 5 5 5 4 4 4 4 2 1 1 1 0 2 2 1 0 1 2 1 1 1 0 0 1 1 1 1 2 2 2 2 2 2 3 3 4 4 4 5 5 5 5 5 5 5 5 4 3 4 4 4 5 5 5 5 5 5 5 5 4 4 2 2 1 3 4 3 2 3 3 3 3 4 4 6 10
7 5 4 4 6 6 6 6 7 5 5 4 4 4 4 5 2 2 1 1 1 0 1 0 1 2 2 1 2 2 2 1 1 1 1 1 2 3 3 3 2 3 2 3 3 4 4 5 5 6 6 5 5 5 5 4 4 3 4 4 4 5 5 5 4 4 3 4 5 5 4 3 3 2 2 2 2 2 2 2 2 3 3 3 4 5 6
5 6 7 6 7 7 9 6 6 4 4 4 5 3 2 5 4 4 4 1 0 2 2 1 1 1 1 2 3 3 4 4 5 3 1 1 2 3 3 3 1 2 4 5 5 5 5 5 5 6 6 5 6 5 4 3 2 1 2 2 2 4 4 3 2 3 3 4 4 5 5 5 5 3 2 3 4 4 4 4 3 3 3 3 3 4 5
5 6 8 6 7 6 7 6 5 4 4 4 4 4 1 2 2 1 2 1 1 3 4 2 2 3 3 5 4 4 2 1 1 2 0 1 2 2 2 2 3 3 3 4 5 4 4 5 5 5 5 4 5 4 4 5 2 1 2 4 4 3 5 6 3 3 3 4 5 5 5 5 5 5 4 4 4 4 4 4 3 3 3 3 3 3 3
8 7 7 6 5 5 4 4 5 4 5 4 4 5 6 6 6 7 4 3 5 5 4 3 3 6 5 2 2 3 2 1 1 0 1 3 3 3 1 2 0 2 3 4 4 4 4 4 6 5 4 4 4 4 4 4 1 2 2 4 5 5 5 5 5 5 4 4 4 5 5 5 5 4 5 5 3 3 3 2 3 2 2 3 3 2 1
8 6 4 4 3 4 4 4 7 6 5 7 8 6 5 5 4 4 4 4 2 2 4 5 5 3 2 3 4 4 3 2 0 0 2 3 4 4 2 2 2 3 4 4 4 4 3 3 5 5 4 4 4 4 3 3 0 0 1 2 4 5 5 4 4 3 4 4 4 3 3 4 4 4 5 3 2 2 2 2 2 2 3 3 2 1 1
10 8 9 9 9 8 8 7 4 4 4 2 1 2 4 4 4 3 3 3 2 2 4 5 4 3 3 4 4 4 4 2 1 3 4 4 4 4 3 2 3 3 5 5 4 4 3 4 5 5 4 3 3 3 3 2 0 1 1 1 3 4 5 5 5 3 3 4 2 2 2 4 5 4 4 3 2 3 3 2 2 3 2 2 2 2 3
10 7 8 9 8 8 8 8 8 6 6 5 2 2 3 3 4 5 4 5 5 6 3 2 3 4 4 4 4 4 5 5 6 4 4 4 4 3 3 4 4 4 6 6 4 4 3 3 3 3 4 3 3 3 3 4 2 2 1 0 1 2 4 4 4 4 1 2 3 1 3 4 4 2 3 3 2 3 3 3 2 3 2 2 3 4 4
6 5 4 4 4 4 5 7 7 9 8 7 6 6 5 5 4 5 5 4 2 3 4 4 4 5 4 4 4 4 5 6 5 5 4 5 4 2 2 2 3 4 5 8 5 2 3 2 4 5 4 3 4 3 3 3 3 1 0 0 1 2 3 2 3 1 1 2 3 2 2 2 3 4 3 3 3 3 2 2 2 1 1 2 2 3 2
6 10 8 7 5 6 5 5 7 7 7 7 6 5 4 4 6 4 3 4 4 4 5 5 5 4 6 7 5 3 3 4 4 4 4 3 2 1 1 2 2 2 2 4 5 2 3 3 6 7 4 3 3 4 3 5 4 1 1 1 1 2 3 3 4 4 3 2 2 3 2 1 3 3 2 2 2 3 3 3 3 4 3 1 1 1 1
5 6 10 9 8 8 8 6 5 6 6 5 2 3 6 7 4 4 3 3 4 4 4 4 5 3 2 2 1 4 5 4 5 5 3 3 1 1 3 2 5 2 3 5 3 2 3 4 6 4 3 4 3 4 4 6 1 1 1 0 1 2 3 2 3 4 4 3 3 2 2 1 0 0 1 1 3 3 3 3 3 4 4 3 1 1 1
4 2 2 3 5 6 5 4 4 4 8 9 5 3 1 2 3 3 2 2 3 4 5 4 4 3 3 3 4 4 5 5 3 3 3 3 2 2 5 6 6 6 7 3 3 5 6 4 3 4 3 4 4 4 3 4 2 2 1 1 1 2 4 3 3 4 5 5 4 4 2 0 1 2 2 3 3 3 3 3 3 2 4 4 1 1 1
5 6 7 7 6 6 7 6 6 5 5 6 8 5 4 4 4 4 3 3 3 4 5 5 4 4 3 4 4 5 5 2 2 3 3 2 2 2 5 7 8 6 6 6 6 5 5 5 4 4 5 4 3 5 3 2 2 2 1 0 0 3 4 5 3 4 5 4 4 3 3 3 3 3 3 3 3 4 4 4 4 3 3 0 1 0 1
7 7 6 7 7 6 7 7 6 5 5 5 5 5 5 5 4 4 4 4 4 4 4 5 4 4 4 5 5 6 4 2 2 2 2 3 1 2 2 6 6 0 1 2 3 4 3 3 2 3 5 4 4 4 3 2 1 2 2 0 0 3 4 5 5 5 4 4 4 5 4 4 4 4 4 3 3 3 4 4 4 3 3 3 4 4 4
5 6 6 7 6 6 5 5 5 4 2 2 3 4 4 4 6 6 5 2 4 4 4 4 5 4 4 3 3 2 3 3 2 2 4 5 4 3 1 6 3 1 1 2 3 3 3 2 3 3 4 5 5 4 2 0 1 2 2 0 1 2 3 4 5 5 4 4 4 5 4 4 4 5 5 4 3 3 3 4 3 3 4 4 3 3 4
7 8 7 7 6 5 6 6 7 7 5 3 3 3 3 3 2 3 4 3 3 3 2 3 3 2 1 2 3 2 3 1 1 2 2 5 5 5 5 6 3 2 4 4 4 4 3 4 3 3 3 4 4 4 2 1 2 1 1 1 1 2 3 4 5 5 4 4 4 5 5 4 4 4 5 4 5 4 3 4 5 5 5 4 3 2 2
5 6 7 7 6 5 5 5 4 4 5 5 4 3 4 4 3 5 5 4 4 4 4 4 3 3 2 3 2 2 4 3 3 1 1 5 4 3 6 6 6 6 5 4 3 4 5 4 3 4 5 4 3 1 0 1 1 1 1 1 3 3 3 4 4 4 5 5 5 5 5 5 3 4 4 3 4 4 5 4 4 4 4 4 4 3 3
7 7 7 7 6 6 5 6 7 9 6 4 4 3 3 4 3 3 4 4 4 4 3 3 2 3 3 3 4 5 4 2 2 4 1 0 1 4 1 2 4 5 5 4 3 3 5 4 4 5 5 5 4 1 0 1 1 1 1 2 4 4 4 4 5 5 5 5 6 6 5 5 4 4 4 5 5 4 4 5 5 5 5 5 5 5 4
6 6 6 8 7 7 7 6 4 5 6 5 4 2 1 3 3 3 3 4 4 3 3 2 2 2 2 3 2 2 2 1 2 3 2 1 1 3 2 4 4 4 5 4 3 4 4 4 5 4 3 2 1 0 0 0 1 1 1 3 4 4 5 5 5 5 5 5 6 5 5 5 4 5 5 6 6 6 7 6 4 4 5 5 6 5 4
6 6 7 8 6 4 4 4 4 5 5 5 4 4 2 1 2 2 2 1 3 3 3 3 2 0 0 2 2 0 0 1 2 0 1 2 3 4 4 5 4 6 4 3 3 4 3 3 3 3 3 1 2 1 1 1 2 2 3 4 4 4 5 5 5 6 6 6 6 5 5 5 5 5 4 4 4 4 2 2 5 4 4 4 5 5 4
7 7 5 5 7 5 5 5 6 6 6 8 7 7 3 3 3 3 3 4 4 4 4 3 3 2 2 2 0 0 1 2 0 2 1 2 3 2 3 5 5 6 5 4 5 4 5 6 7 6 5 3 1 2 2 3 3 3 3 3 3 4 4 5 5 5 6 6 5 4 4 4 4 4 4 5 4 4 4 5 3 2 3 4 4 4 6
7 7 5 4 6 6 7 6 5 5 7 4 4 4 3 4 4 4 4 4 4 4 3 3 2 2 2 2 1 1 1 1 1 0 0 0 1 2 3 3 5 6 5 4 4 4 6 7 7 6 5 4 2 2 3 4 4 3 3 2 3 4 4 4 5 5 5 6 4 3 3 4 4 4 4 4 3 2 4 4 4 4 4 4 4 5 4
4 6 6 6 6 6 7 7 6 7 5 5 6 6 4 5 5 3 3 4 5 4 3 3 2 1 1 1 1 1 1 1 2 2 2 1 1 2 2 3 3 4 5 4 4 5 6 7 6 5 4 3 2 2 3 3 3 3 3 2 3 3 4 4 4 4 4 5 4 4 4 4 4 4 4 4 3 3 4 3 3 5 6 4 5 3 3
6 6 7 7 7 8 8 9 9 8 7 7 6 6 6 7 7 6 6 6 5 4 3 1 0 0 1 0 0 0 1 1 1 1 2 2 2 2 3 3 3 3 3 3 4 4 3 4 4 4 4 4 4 3 2 2 2 4 4 2 2 3 4 4 4 4 4 3 3 3 3 4 4 3 3 3 3 4 3 3 3 3 3 2 2 3 3
8 7 7 6 6 4 3 1 2 5 5 7 7 7 6 6 6 5 3 4 4 6 6 4 2 2 2 1 1 0 0 0 0 1 2 2 2 2 2 2 2 3 4 4 4 3 3 4 4 5 5 3 3 2 3 3 2 1 4 4 1 1 2 3 3 4 3 4 4 4 4 4 3 3 2 2 3 4 2 1 1 2 2 2 2 2 2
Wind_Direction
57 43 76 88 76 71 74 69 58 47 31 44 75 66 39 76 141 182 145 136 113 118 106 101 87 74 72 63 59 53 55 54 47 43 38 34 29 21 18 12 7 4 3 357 357 359 358 357 360 356 353 351 350 353 358 357 355 356 345 352 354 354 351 347 339 328 320 314 313 310 303 288 264 246 234 222 214 201 198 198 187 181 177 179 165 167 172
51 35 40 66 95 91 64 50 55 57 59 61 68 66 42 87 99 118 125 111 98 105 111 101 93 81 74 72 61 55 52 46 48 46 39 33 26 17 11 6 3 2 1 0 357 356 360 2 359 358 354 352 350 353 356 356 358 353 349 353 357 357 358 351 338 334 327 323 319 315 310 294 268 247 236 228 218 208 200 195 201 183 162 171 167 164 164
45 32 56 66 77 84 74 51 53 59 62 63 60 77 71 79 80 98 109 106 105 83 101 104 96 87 83 68 59 58 49 47 47 46 41 31 18 8 9 4 2 0 4 4 2 2 2 0 358 357 354 349 351 357 357 357 357 351 351 355 355 357 358 352 345 336 335 334 328 324 323 311 279 254 239 226 220 213 202 193 198 181 164 167 168 166 169
71 15 80 90 89 80 72 50 32 26 17 44 11 43 336 111 140 129 117 107 132 134 114 102 87 80 73 71 68 60 50 47 51 48 41 34 15 11 4 360 3 6 5 2 3 2 359 357 356 360 358 356 0 1 355 357 351 350 357 356 356 356 354 353 351 346 341 338 337 331 327 326 307 261 238 226 219 213 199 192 193 184 176 170 164 166 168
95 194 33 24 11 58 48 27 37 49 72 97 81 36 33 40 128 135 147 126 106 129 126 109 89 81 77 66 55 62 59 53 52 46 41 33 14 11 3 0 0 3 5 3 0 359 358 355 357 358 359 360 1 354 355 349 352 0 0 1 357 359 355 355 354 350 345 343 340 339 335 325 326 295 249 237 226 206 204 195 175 179 181 158 156 161 162
147 193 1 327 64 95 143 333 301 302 39 95 73 43 37 33 56 80 92 121 128 121 116 111 111 97 86 85 75 62 57 54 47 44 41 23 17 13 8 357 2 2 4 360 358 358 355 352 357 351 358 1 350 347 350 354 10 6 6 4 4 359 357 357 353 353 350 350 348 344 344 345 346 349 319 264 228 209 187 148 157 155 163 154 145 154 158
145 112 20 64 136 225 345 347 35 96 100 92 87 69 61 69 88 98 98 109 110 105 100 109 109 107 96 77 72 57 46 47 53 50 37 24 26 18 7 7 5 5 358 352 356 359 359 357 353 355 356 358 348 357 358 9 15 14 11 9 8 2 0 356 355 355 352 352 354 350 355 358 3 4 5 10 2 1 69 87 88 121 144 140 129 122 117
74 91 72 144 226 70 90 78 83 111 100 114 90 64 49 54 72 97 106 107 108 111 112 110 109 102 95 80 59 55 51 49 55 53 38 20 21 18 13 10 4 1 357 355 355 351 349 356 354 356 353 346 359 359 359 13 12 12 11 13 10 4 1 358 356 354 350 351 354 356 4 12 14 14 16 13 16 16 353 52 60 66 46 43 68 86 100
127 111 62 84 117 124 133 129 222 201 205 233 129 119 37 36 88 114 119 119 118 118 119 120 119 119 102 77 52 23 31 30 40 52 47 31 24 19 12 6 3 5 3 360 354 354 355 358 357 351 344 349 359 4 9 10 12 10 10 12 8 3 1 357 356 355 355 356 357 1 7 22 22 22 19 18 23 16 15 5 66 53 51 53 41 34 31
111 131 105 109 17 230 198 194 136 139 128 141 161 101 118 55 89 129 130 128 131 131 134 141 147 154 83 58 47 8 19 24 37 38 43 37 35 29 16 10 14 14 8 0 359 2 354 355 353 347 349 353 2 9 10 8 12 11 12 7 359 359 359 356 356 356 356 359 3 4 9 22 29 28 24 29 31 21 22 1 47 62 60 57 47 45 41
95 76 118 157 179 234 83 157 192 262 18 165 137 70 136 106 114 145 137 135 146 151 153 159 151 160 86 118 131 89 1 26 22 48 38 34 35 31 26 20 16 6 0 355 0 5 3 360 345 348 354 358 4 8 6 6 10 14 10 1 356 353 351 354 358 358 357 4 8 5 8 19 30 33 33 26 31 36 23 9 41 65 65 60 53 43 45
86 131 98 165 184 174 159 165 257 264 50 142 95 26 242 151 110 143 147 149 155 161 159 151 165 150 131 179 161 161 114 79 45 43 37 31 23 19 11 19 15 9 6 14 10 3 358 344 336 351 355 357 4 7 4 4 15 13 3 352 347 348 351 356 0 4 3 9 10 10 6 11 21 44 47 41 28 38 33 359 46 61 61 58 62 50 45
87 83 82 35 10 12 233 208 269 282 176 164 110 211 169 142 113 120 142 148 151 156 155 161 130 323 31 127 135 136 107 73 44 32 38 36 28 23 16 11 8 15 11 15 6 356 345 340 346 351 355 3 8 3 5 13 15 1 345 344 353 358 359 1 4 7 8 12 15 11 8 7 14 32 37 58 50 40 36 10 26 65 60 58 62 57 49
81 99 95 174 200 198 149 221 249 254 138 104 228 191 123 132 122 95 132 138 144 147 130 109 103 110 103 106 107 103 81 81 60 44 33 25 17 12 16 19 16 5 6 10 9 4 356 355 355 355 358 12 3 358 5 13 7 351 343 346 357 7 10 7 4 7 12 15 19 15 8 10 16 37 28 37 52 58 49 28 30 55 61 61 61 60 53
53 26 83 46 216 232 36 99 56 3 142 222 119 124 100 111 119 121 111 128 134 124 111 120 122 116 106 106 106 98 89 75 59 42 28 20 11 4 6 3 1 7 7 4 2 357 353 356 357 359 6 7 358 354 8 358 357 358 348 349 1 12 15 13 9 9 13 17 19 18 13 10 24 31 31 34 42 44 48 49 37 39 48 49 59 59 54
130 121 140 197 331 344 317 308 168 224 107 136 137 126 120 116 127 128 121 114 128 128 127 130 124 118 114 102 102 90 71 69 48 33 24 14 15 5 359 2 355 3 4 356 353 346 350 354 359 3 12 4 358 360 357 339 356 358 358 356 3 12 17 18 13 12 12 15 19 23 20 17 25 26 26 29 34 35 44 46 46 40 33 36 48 53 52
141 184 181 23 63 55 30 92 104 102 100 109 113 109 120 134 127 130 121 125 122 123 124 121 121 115 111 111 103 100 90 67 37 22 1 6 4 360 356 342 352 5 359 339 342 348 347 354 353 359 6 10 1 358 337 344 355 355 356 3 12 10 13 16 18 11 17 19 16 21 23 26 28 19 23 25 35 26 34 41 47 55 46 42 46 45 45
94 60 67 102 79 81 83 73 87 105 103 94 107 118 118 96 112 120 121 117 116 114 118 121 114 115 128 116 99 86 61 38 5 4 6 359 357 352 352 354 354 350 351 354 358 353 341 349 351 352 353 7 3 339 334 349 352 351 356 9 14 14 10 16 15 16 20 15 19 20 24 30 34 29 25 25 29 23 28 34 34 37 40 49 53 51 48
85 58 51 85 94 91 87 92 79 79 89 99 104 102 102 113 107 100 98 113 114 117 113 119 127 129 123 105 86 75 59 30 358 356 342 328 329 339 346 328 340 352 4 355 350 349 341 338 345 341 349 355 351 341 345 344 348 351 4 11 14 14 14 9 14 20 23 16 21 23 20 22 34 32 27 28 32 28 22 25 37 37 35 40 44 45 45
85 131 120 94 87 86 91 93 104 99 94 88 82 94 101 103 99 100 109 100 94 104 111 125 123 124 116 115 141 103 70 260 320 309 316 320 338 333 318 315 349 347 353 346 336 337 328 326 338 341 349 351 343 343 346 349 346 357 9 9 9 12 10 9 16 14 21 20 27 31 27 28 29 26 27 30 41 32 23 17 32 44 47 42 44 52 57
90 99 105 108 89 77 73 80 75 91 107 106 101 99 99 98 94 87 69 83 123 117 129 118 115 114 159 165 162 162 235 329 312 309 312 316 311 310 336 333 342 325 317 333 332 329 324 330 339 339 340 343 346 345 345 348 352 2 10 3 10 12 6 10 11 3 15 28 27 22 31 46 49 40 32 26 31 40 26 14 12 49 76 66 57 51 60
153 161 156 155 137 141 118 101 114 111 105 106 105 103 101 104 106 103 97 66 65 103 124 133 128 137 177 211 151 176 221 254 281 303 317 316 323 318 315 313 330 341 351 350 333 327 320 335 339 337 333 337 340 343 347 353 356 5 7 13 16 7 3 7 2 360 3 14 23 35 30 26 49 58 52 55 50 53 25 16 49 56 70 84 87 95 90
174 158 160 91 83 110 128 140 125 116 118 116 117 119 122 115 113 118 111 108 96 89 63 97 132 150 161 203 155 115 301 266 245 257 283 311 320 317 343 354 346 351 338 346 350 344 338 334 338 334 329 332 343 341 345 346 358 357 13 19 15 8 5 2 349 344 353 7 6 19 35 42 26 54 53 37 42 45 47 47 51 52 60 66 66 55 81
75 123 122 123 137 130 146 136 128 128 131 121 118 121 123 135 138 133 123 132 131 130 136 94 154 155 170 179 157 201 276 296 328 320 292 262 257 279 323 325 334 350 360 356 357 334 326 335 332 337 334 336 349 335 336 337 354 3 24 33 19 358 350 348 351 354 350 0 5 39 21 30 49 33 55 70 39 25 35 48 51 56 50 46 43 48 50
142 145 122 110 111 107 117 126 127 129 131 126 132 144 146 134 139 138 126 130 142 141 145 163 204 166 151 183 178 199 244 299 300 286 287 307 322 347 356 14 16 2 337 327 317 333 344 351 356 351 355 344 346 349 337 337 341 15 17 31 26 8 354 345 345 350 355 8 9 13 44 76 60 58 51 66 83 61 18 31 61 62 49 37 33 27 34
106 110 102 94 86 93 105 98 88 108 119 122 117 129 140 135 139 112 116 128 126 125 130 142 139 272 163 167 211 213 257 279 298 305 315 348 13 20 9 349 311 303 317 334 343 5 4 3 355 350 358 342 347 341 332 334 342 28 23 19 6 26 5 343 339 344 351 0 3 7 359 65 96 90 71 62 94 104 92 51 21 39 52 39 27 31 43
90 106 112 98 93 102 123 136 155 169 142 123 129 126 114 109 112 123 132 115 133 146 150 167 162 164 159 189 183 203 233 301 335 21 2 11 20 338 291 289 297 304 336 344 5 7 353 355 1 354 341 327 335 335 340 346 3 26 24 10 356 6 14 4 358 333 336 0 7 4 27 42 62 107 112 97 81 69 86 87 81 44 2 12 23 31 57
100 106 106 131 146 157 167 136 111 114 110 114 121 118 126 106 95 95 86 90 82 53 125 177 160 158 219 260 170 263 331 319 284 334 334 348 313 308 314 310 327 341 324 0 358 349 357 357 354 347 328 322 339 339 346 6 26 23 23 7 2 1 3 359 357 349 352 8 12 13 15 18 33 68 62 129 127 129 111 95 97 90 58 42 44 35 57
128 112 62 71 101 109 104 105 100 99 93 86 98 108 115 109 102 120 198 212 199 353 331 341 254 224 222 213 170 206 239 279 255 249 240 322 329 327 326 336 339 344 359 0 354 358 353 355 350 343 325 328 337 340 345 8 44 14 10 355 359 3 1 350 345 356 358 21 27 14 3 15 42 53 40 20 51 87 99 92 70 57 64 79 83 67 49
107 98 101 105 111 107 102 113 137 131 128 130 118 118 132 136 152 206 225 287 8 256 238 159 164 249 219 238 217 181 186 205 208 225 244 292 311 327 338 334 9 7 9 9 342 338 338 334 335 323 310 328 330 327 340 9 47 347 333 331 341 358 347 326 357 21 29 22 12 19 20 18 21 27 24 22 20 22 30 18 13 47 57 24 28 77 88
97 99 107 108 112 115 125 146 142 147 133 131 134 141 133 137 177 249 263 252 262 255 272 239 236 249 225 223 216 209 214 192 204 252 267 320 312 320 340 342 63 358 322 301 303 316 323 322 316 301 303 312 319 322 343 4 27 18 352 342 329 6 27 360 0 50 40 18 24 30 23 27 33 27 21 23 26 25 26 34 23 27 44 54 48 45 54
95 96 106 117 126 118 104 121 137 155 163 152 134 174 186 175 196 218 220 197 228 222 244 256 253 241 235 209 167 155 152 126 163 176 353 330 315 293 262 273 264 235 269 281 290 301 310 318 317 312 326 320 315 320 339 2 3 58 351 315 332 349 359 12 348 353 45 54 32 38 17 25 14 27 40 40 35 35 23 51 57 35 29 55 76 57 358
106 94 92 94 94 118 147 189 164 181 168 176 197 192 187 204 202 209 211 213 231 216 206 226 233 230 183 139 134 135 128 120 88 7 325 308 299 294 287 260 255 264 280 273 272 281 273 279 286 306 321 315 313 317 344 2 229 150 252 300 316 346 347 9 14 355 1 28 48 26 18 35 42 53 60 52 60 55 52 57 72 68 53 44 43 341 333
154 170 177 177 163 169 179 202 213 172 194 215 225 179 183 197 197 204 220 218 196 197 204 224 209 164 134 134 135 130 126 125 214 258 264 264 273 286 304 298 278 281 275 285 293 279 250 243 265 292 302 306 309 319 343 354 198 201 215 279 353 1 350 348 359 35 71 355 339 4 51 67 51 54 51 70 67 84 61 56 51 55 54 28 23 357 58
166 178 171 177 182 177 171 166 172 177 172 176 195 201 209 185 178 202 198 163 179 205 200 124 123 126 118 115 129 145 155 184 211 219 247 255 262 283 301 321 337 345 334 320 306 287 255 259 281 294 295 305 323 335 335 330 282 234 185 230 345 3 343 351 5 11 54 139 285 356 34 60 54 54 90 102 85 82 79 69 75 77 63 34 17 31 37
135 129 131 155 167 157 165 166 169 170 174 176 181 179 185 188 176 161 170 196 191 115 112 114 118 110 115 131 148 179 204 226 226 231 253 261 263 273 301 346 355 343 342 322 304 276 285 292 322 338 319 335 342 329 322 320 335 346 78 121 69 346 4 5 324 341 358 356 345 322 58 113 98 84 85 95 85 84 93 77 53 43 70 68 61 52 54
166 159 168 166 167 156 165 170 164 162 166 163 162 159 164 182 196 193 152 131 133 141 136 129 117 136 182 201 199 203 224 219 219 221 235 265 283 261 298 327 314 317 351 323 280 299 322 328 336 339 335 338 330 319 317 336 359 92 127 80 41 347 340 360 356 357 340 4 353 310 306 18 40 50 54 91 104 116 110 112 101 84 76 90 68 46 29
177 168 165 163 167 162 174 180 161 150 136 131 146 178 180 180 185 178 184 148 141 150 156 144 152 166 148 135 163 216 244 244 234 239 245 263 288 325 304 283 283 249 272 263 248 322 324 319 327 333 323 323 310 306 318 340 18 131 127 148 273 311 319 351 10 350 326 287 259 256 345 49 70 55 58 91 133 131 127 140 164 167 159 132 135 165 163
110 89 82 109 131 141 131 132 158 177 151 153 172 181 214 174 170 143 158 189 168 146 139 139 126 118 135 157 211 251 254 249 241 232 224 233 212 201 248 246 240 221 226 248 323 303 299 304 304 305 300 290 296 301 322 359 91 118 133 126 63 336 314 342 350 315 306 315 335 325 349 65 242 233 201 193 178 144 154 163 162 213 202 196 181 17 13
152 161 160 148 145 148 139 154 171 179 168 153 149 173 182 154 153 151 158 148 168 168 157 145 144 152 175 203 214 238 248 236 205 196 216 200 175 249 299 293 262 249 249 262 267 266 274 281 282 284 281 285 289 293 327 28 113 110 108 96 32 324 315 315 329 318 309 318 303 281 273 250 246 240 231 187 183 190 183 192 199 200 236 337 53 66 31
158 152 156 148 149 148 147 147 165 177 163 167 171 159 159 147 130 126 163 184 169 166 168 169 166 186 195 202 210 228 235 230 208 191 167 124 175 237 264 274 283 2 249 250 240 263 273 270 250 281 296 300 297 290 324 43 112 116 122 114 99 326 323 324 325 319 306 298 285 280 266 247 243 252 248 234 209 196 202 210 211 208 180 180 189 189 197
150 140 137 137 142 154 153 142 130 129 160 183 181 166 150 144 153 174 192 164 141 168 171 198 202 197 207 214 221 255 285 267 224 188 179 187 208 183 186 264 271 301 314 309 284 275 274 275 251 256 286 304 305 326 332 23 123 117 117 132 229 259 280 294 302 301 294 267 256 260 260 242 227 230 228 227 228 204 196 203 209 218 210 216 213 191 183
146 142 145 148 148 146 140 148 160 166 168 193 190 173 154 156 148 123 125 146 155 165 191 214 229 240 196 172 172 208 252 282 218 192 235 259 236 201 194 247 275 263 277 296 308 306 289 269 287 292 291 295 307 330 1 148 138 134 153 194 224 241 257 270 284 292 295 291 278 260 255 245 232 224 210 207 210 202 208 206 203 205 210 214 190 193 276
154 141 142 145 156 159 148 146 136 130 153 199 200 170 163 185 190 151 150 160 179 191 183 208 210 218 202 172 161 210 266 269 266 223 256 313 321 262 225 241 269 292 308 289 281 278 281 274 274 288 304 316 338 30 131 149 148 150 184 270 292 301 300 301 296 295 297 296 289 284 270 263 260 256 237 220 217 208 199 212 216 206 207 204 184 158 179
154 153 155 155 148 138 140 140 154 177 182 150 142 149 167 176 196 169 148 165 181 201 192 190 198 217 191 177 193 211 221 220 190 154 161 325 342 299 282 217 263 278 290 293 274 262 268 269 279 303 329 349 1 65 136 148 160 176 217 263 285 294 296 297 291 290 284 281 278 277 273 253 226 217 219 228 221 210 201 209 216 204 198 197 184 189 193
158 152 140 127 140 168 178 168 148 118 123 125 121 123 183 190 182 184 178 171 170 190 196 189 187 204 197 211 239 270 271 259 225 197 179 174 247 258 273 291 285 287 291 287 264 257 258 271 288 303 316 345 25 93 116 133 150 184 244 270 280 284 289 292 297 292 280 273 272 271 263 249 223 223 218 217 214 203 207 201 187 198 199 195 197 201 194
146 145 157 160 161 141 112 112 115 111 105 114 140 188 220 143 144 158 178 156 124 121 116 130 115 20 250 188 176 128 2 348 6 45 217 269 259 277 294 302 313 310 316 301 277 275 273 282 285 275 272 250 141 130 144 176 209 226 249 270 280 287 291 298 296 295 294 286 277 263 255 240 228 235 245 253 241 226 142 162 217 204 199 202 207 204 196
152 160 169 155 142 135 115 115 123 140 158 175 188 186 177 141 118 106 107 109 107 101 91 78 77 55 39 44 347 213 172 132 108 296 282 329 325 334 352 358 332 322 316 314 317 310 305 299 297 294 279 246 174 161 174 192 212 227 250 275 287 299 306 307 305 302 298 299 294 284 256 249 251 258 252 241 237 220 187 201 205 175 186 195 209 201 197
164 161 153 134 135 140 143 149 149 159 190 186 159 172 158 123 105 106 113 114 111 98 85 67 53 28 7 356 6 358 325 254 160 208 233 62 322 360 354 353 4 11 15 12 354 341 346 341 330 327 326 319 278 230 210 207 205 201 215 236 263 281 283 283 284 293 295 294 297 299 323 329 301 266 260 260 250 217 206 218 201 201 212 200 204 209 203
127 115 123 140 148 157 161 156 173 189 177 163 174 159 153 130 119 160 162 139 134 127 105 73 49 5 340 341 348 340 353 39 45 68 77 62 43 42 29 33 23 29 33 30 14 359 351 349 342 349 352 350 340 306 283 291 278 244 212 216 259 277 281 282 293 297 288 297 314 320 310 291 284 287 294 289 272 237 207 212 222 220 206 194 194 214 220
147 156 166 174 179 178 176 177 181 173 169 174 163 158 156 162 164 170 170 161 139 125 129 109 351 272 257 266 349 347 12 30 49 81 96 67 56 49 38 37 38 35 27 31 21 354 342 341 341 348 353 358 348 318 263 241 247 280 272 247 258 296 312 319 325 331 334 314 294 299 326 332 337 350 336 310 289 263 234 209 214 219 240 247 221 215 218
171 172 168 166 166 154 148 75 124 154 147 148 150 160 167 160 143 154 178 198 166 159 164 148 200 260 228 242 248 282 357 59 125 71 67 71 78 65 38 43 40 29 31 23 3 351 346 347 355 1 2 359 349 341 309 287 245 248 267 275 291 25 33 33 28 41 26 15 24 27 24 18 11 21 9 339 332 316 300 266 235 210 183 175 197 207 210